Content
SEND FEEDBACK

Daily
Averages
Monthly
Summary
United States of America

EUREKA, CALIFORNIA


Home > North America > United States > California
Elevation: 59 feet     Latitude: 40 48N     Longitude: 124 07W

WEATHER
 
SELECT A DAY
Number of Records: 239,765;   Date Range: 1/1/95 - 7/31/14
 
SHARE

PRINT THIS DATA

[ ← Previous Day ]
WEATHER ALMANAC - NOVEMBER 21, 2013
[ Next Day → ]
[ °C ]   °F
Weather ElementAverageHighLow
Temperature45.5 °F59 °F (2:53 pm)35.1 °F (11:53 pm)
Dewpoint35.3 °F43 °F (12:26 am)25 °F (6:53 pm)
Humidity71.7 %100 % (12:53 am)33 % (3:53 pm)
Barometer30.12 in30.25 in (11:53 pm)29.99 in (12:26 am)
Wind Speed5.8 mph19.6 mph (12:53 pm)
Wind Gust24.2 mph (11:53 am)
Weather ElementAverage
Visibility7.1 mi
Wind DirectionESE (119.4 °)

Weather ElementTotal
Precipitation---
Heating Degree Days18 (Base 65)
Averaged from 33 records on November 21, 2013
WEATHER CONDITIONS BREAKOUT
WIND DIRECTION BREAKOUT
WEATHER BY HOUR - NOVEMBER 21, 2013
[ °C ]   °F
Local TimeTemperatureDewpointHumidityBarometerVisibilityWind DirectionWind SpeedGust SpeedPrecipitationEventsConditions
12:26 AM44.1 °F43.0 °F96 %29.99 in0.2 miCalmFogFog
12:53 AM42.1 °F42.1 °F100 %30.01 in0.2 miCalmFogFog
1:04 AM42.1 °F41.0 °F96 %30.00 in0.5 miCalmFogFog
1:16 AM42.1 °F39.9 °F92 %30.00 in0.2 miNorth (360°)3.5 mphFogFog
1:27 AM39.0 °F37.9 °F96 %30.00 in0.2 miCalmFogFog
1:35 AM42.1 °F39.9 °F92 %30.00 in1.0 miCalmMist
1:37 AM42.1 °F39.9 °F92 %30.00 in2.5 miCalmScattered Clouds
1:44 AM41.0 °F39.9 °F96 %30.01 in4.0 miCalmPartly Cloudy
1:53 AM42.1 °F39.9 °F92 %30.03 in5.0 miNE (50°)4.6 mphPartly Cloudy
2:13 AM41.0 °F39.0 °F93 %30.01 in1.0 miNNE (30°)8.1 mphClear
2:18 AM41.0 °F39.0 °F93 %30.01 in3.0 miNNE (30°)8.1 mphClear
2:53 AM41.0 °F39.0 °F93 %30.05 in10.0 miNNE (30°)3.5 mphClear
3:53 AM39.9 °F37.0 °F89 %30.07 in7.0 miNNE (30°)4.6 mphClear
4:53 AM43.0 °F36.0 °F76 %30.08 in10.0 miNE (50°)4.6 mphClear
5:53 AM37.0 °F34.0 °F89 %30.12 in10.0 miNNE (30°)4.6 mphClear
6:53 AM39.9 °F33.1 °F77 %30.14 in10.0 miNNW (330°)5.8 mphClear
7:53 AM41.0 °F33.1 °F73 %30.16 in10.0 miNorth (360°)4.6 mphClear
8:53 AM48.9 °F35.1 °F59 %30.17 in10.0 miCalmClear
9:53 AM54.0 °F30.9 °F41 %30.18 in10.0 miVariable3.5 mphClear
10:53 AM55.9 °F36.0 °F47 %30.18 in10.0 miNNW (330°)9.2 mphClear
11:53 AM55.9 °F37.9 °F51 %30.18 in10.0 miNNW (330°)18.4 mph24.2 mphClear
12:53 PM55.9 °F39.9 °F55 %30.17 in10.0 miNNW (330°)19.6 mphClear
1:53 PM55.9 °F36.0 °F47 %30.18 in10.0 miNNW (340°)18.4 mphClear
2:53 PM59.0 °F34.0 °F39 %30.17 in10.0 miNorth (350°)10.4 mphClear
3:53 PM59.0 °F30.0 °F33 %30.17 in10.0 miNorth (360°)10.4 mphClear
4:53 PM55.9 °F28.0 °F34 %30.19 in10.0 miNorth (10°)9.2 mphClear
5:53 PM53.1 °F28.9 °F40 %30.21 in10.0 miNNE (30°)10.4 mphClear
6:53 PM53.1 °F25.0 °F34 %30.22 in10.0 miNE (40°)10.4 mphClear
7:53 PM45.0 °F30.0 °F56 %30.24 in10.0 miSouth (180°)5.8 mphClear
8:53 PM37.9 °F30.0 °F73 %30.24 in10.0 miSSE (160°)3.5 mphClear
9:53 PM39.9 °F28.9 °F65 %30.24 in10.0 miSE (140°)4.6 mphClear
10:53 PM37.0 °F30.9 °F79 %30.23 in10.0 miVariable3.5 mphClear
11:53 PM35.1 °F28.9 °F78 %30.25 in10.0 miNE (40°)3.5 mphClear
Hourly data recorded from KACV, located miles away from Eureka, California







STORIES FROM OUR PARTNERS